Torna al catalogo

CZ-4 DEB

AttivoSSO
NORAD 20864·DEBRIS·🇨🇳 China

Lanciato Sep 3, 1990 da Taiyuan Satellite Launch Center

Loading…

Prossimi Passaggi (prossime 24 ore)

TLE

AggiornatoSource: Space-Track

Epoca: Sep 14, 2026, 10:24 UTC

1 20864U 90081AC  26257.43400970  .00000678  00000-0  43288-3 0  9996
2 20864  98.8568 330.6920 0066118 323.1342  96.2789 14.05882029832271

Traccia CZ-4 DEB in tempo reale con AllMySat

Download on the App Store